Year,Month,Day,Hour,Minute,Value (Times are PST for temperature in C)
2012,07,29,00,00,14.10
2012,07,29,00,01,14.10
2012,07,29,00,02,14.10
2012,07,29,00,04,14.10
2012,07,29,00,05,14.10
2012,07,29,00,07,14.10
2012,07,29,00,09,14.10
2012,07,29,00,10,14.00
2012,07,29,00,11,14.00
2012,07,29,00,13,14.00
2012,07,29,00,15,14.00
2012,07,29,00,16,14.00
2012,07,29,00,18,14.00
2012,07,29,00,19,14.00
2012,07,29,00,20,14.00
2012,07,29,00,21,14.00
2012,07,29,00,22,14.00
2012,07,29,00,23,14.00
2012,07,29,00,24,14.00
2012,07,29,00,25,14.00
2012,07,29,00,27,14.00
2012,07,29,00,28,13.90
2012,07,29,00,29,13.90
2012,07,29,00,30,13.90
2012,07,29,00,31,13.90
2012,07,29,00,32,13.90
2012,07,29,00,33,13.90
2012,07,29,00,35,13.90
2012,07,29,00,36,13.90
2012,07,29,00,37,13.90
2012,07,29,00,39,13.90
2012,07,29,00,40,13.90
2012,07,29,00,41,13.90
2012,07,29,00,43,13.90
2012,07,29,00,44,13.90
2012,07,29,00,46,13.90
2012,07,29,00,47,13.80
2012,07,29,00,48,13.80
2012,07,29,00,49,13.80
2012,07,29,00,51,13.80
2012,07,29,00,52,13.80
2012,07,29,00,54,13.80
2012,07,29,00,55,13.80
2012,07,29,00,57,13.80
2012,07,29,00,59,13.70
2012,07,29,01,01,13.70
2012,07,29,01,02,13.70
2012,07,29,01,03,13.70
2012,07,29,01,04,13.70
2012,07,29,01,05,13.70
2012,07,29,01,07,13.70
2012,07,29,01,08,13.70
2012,07,29,01,09,13.70
2012,07,29,01,11,13.70
2012,07,29,01,13,13.70
2012,07,29,01,14,13.70
2012,07,29,01,15,13.70
2012,07,29,01,16,13.70
2012,07,29,01,17,13.70
2012,07,29,01,19,13.70
2012,07,29,01,20,13.70
2012,07,29,01,21,13.70
2012,07,29,01,22,13.70
2012,07,29,01,23,13.70
2012,07,29,01,24,13.70
2012,07,29,01,25,13.70
2012,07,29,01,26,13.70
2012,07,29,01,27,13.60
2012,07,29,01,28,13.60
2012,07,29,01,30,13.60
2012,07,29,01,32,13.60
2012,07,29,01,34,13.60
2012,07,29,01,35,13.60
2012,07,29,01,36,13.70
2012,07,29,01,38,13.70
2012,07,29,01,39,13.70
2012,07,29,01,40,13.70
2012,07,29,01,41,13.70
2012,07,29,01,43,13.70
2012,07,29,01,44,13.70
2012,07,29,01,45,13.70
2012,07,29,01,46,13.70
2012,07,29,01,47,13.70
2012,07,29,01,48,13.70
2012,07,29,01,49,13.70
2012,07,29,01,51,13.70
2012,07,29,01,53,13.70
2012,07,29,01,55,13.70
2012,07,29,01,56,13.70
2012,07,29,01,57,13.70
2012,07,29,01,58,13.70
2012,07,29,01,59,13.70
2012,07,29,02,01,13.70
2012,07,29,02,02,13.70
2012,07,29,02,03,13.70
2012,07,29,02,05,13.70
2012,07,29,02,07,13.70
2012,07,29,02,08,13.70
2012,07,29,02,09,13.70
2012,07,29,02,11,13.70
2012,07,29,02,13,13.70
2012,07,29,02,14,13.70
2012,07,29,02,15,13.60
2012,07,29,02,17,13.60
2012,07,29,02,18,13.60
2012,07,29,02,20,13.60
2012,07,29,02,21,13.60
2012,07,29,02,22,13.60
2012,07,29,02,24,13.60
2012,07,29,02,25,13.60
2012,07,29,02,26,13.60
2012,07,29,02,27,13.60
2012,07,29,02,28,13.60
2012,07,29,02,29,13.60
2012,07,29,02,30,13.60
2012,07,29,02,31,13.60
2012,07,29,02,32,13.60
2012,07,29,02,33,13.70
2012,07,29,02,34,13.70
2012,07,29,02,35,13.70
2012,07,29,02,36,13.70
2012,07,29,02,38,13.70
2012,07,29,02,39,13.70
2012,07,29,02,40,13.80
2012,07,29,02,42,13.80
2012,07,29,02,44,13.80
2012,07,29,02,45,13.80
2012,07,29,02,46,13.80
2012,07,29,02,47,13.80
2012,07,29,02,49,13.90
2012,07,29,02,50,13.90
2012,07,29,02,51,13.90
2012,07,29,02,53,13.90
2012,07,29,02,54,13.90
2012,07,29,02,55,13.90
2012,07,29,02,56,13.90
2012,07,29,02,58,14.00
2012,07,29,03,00,14.10
2012,07,29,03,02,14.10
2012,07,29,03,03,14.10
2012,07,29,03,05,14.10
2012,07,29,03,07,14.10
2012,07,29,03,09,14.10
2012,07,29,03,10,14.10
2012,07,29,03,12,14.10
2012,07,29,03,13,14.10
2012,07,29,03,14,14.10
2012,07,29,03,15,14.10
2012,07,29,03,16,14.10
2012,07,29,03,17,14.10
2012,07,29,03,19,14.20
2012,07,29,03,20,14.20
2012,07,29,03,22,14.20
2012,07,29,03,23,14.20
2012,07,29,03,25,14.20
2012,07,29,03,26,14.20
2012,07,29,03,27,14.20
2012,07,29,03,28,14.20
2012,07,29,03,30,14.20
2012,07,29,03,31,14.20
2012,07,29,03,32,14.20
2012,07,29,03,34,14.20
2012,07,29,03,35,14.20
2012,07,29,03,37,14.20
2012,07,29,03,38,14.20
2012,07,29,03,39,14.20
2012,07,29,03,40,14.20
2012,07,29,03,42,14.20
2012,07,29,03,43,14.20
2012,07,29,03,45,14.30
2012,07,29,03,46,14.30
2012,07,29,03,47,14.30
2012,07,29,03,49,14.30
2012,07,29,03,51,14.30
2012,07,29,03,52,14.30
2012,07,29,03,53,14.30
2012,07,29,03,54,14.30
2012,07,29,03,55,14.30
2012,07,29,03,57,14.30
2012,07,29,03,59,14.30
2012,07,29,04,00,14.30
2012,07,29,04,02,14.40
2012,07,29,04,03,14.40
2012,07,29,04,04,14.40
2012,07,29,04,05,14.40
2012,07,29,04,07,14.40
2012,07,29,04,09,14.40
2012,07,29,04,10,14.40
2012,07,29,04,11,14.40
2012,07,29,04,12,14.40
2012,07,29,04,13,14.40
2012,07,29,04,14,14.40
2012,07,29,04,16,14.40
2012,07,29,04,18,14.50
2012,07,29,04,19,14.50
2012,07,29,04,20,14.50
2012,07,29,04,22,14.50
2012,07,29,04,24,14.50
2012,07,29,04,25,14.50
2012,07,29,04,27,14.50
2012,07,29,04,28,14.50
2012,07,29,04,30,14.50
2012,07,29,04,31,14.50
2012,07,29,04,33,14.50
2012,07,29,04,35,14.50
2012,07,29,04,36,14.50
2012,07,29,04,37,14.50
2012,07,29,04,39,14.60
2012,07,29,04,41,14.50
2012,07,29,04,42,14.50
2012,07,29,04,43,14.50
2012,07,29,04,44,14.50
2012,07,29,04,46,14.50
2012,07,29,04,47,14.60
2012,07,29,04,48,14.60
2012,07,29,04,50,14.60
2012,07,29,04,52,14.60
2012,07,29,04,53,14.60
2012,07,29,04,54,14.60
2012,07,29,04,55,14.60
2012,07,29,04,56,14.60
2012,07,29,04,57,14.60
2012,07,29,04,58,14.60
2012,07,29,05,00,14.60
2012,07,29,05,01,14.60
2012,07,29,05,02,14.60
2012,07,29,05,03,14.60
2012,07,29,05,05,14.60
2012,07,29,05,06,14.60
2012,07,29,05,07,14.60
2012,07,29,05,08,14.60
2012,07,29,05,09,14.60
2012,07,29,05,10,14.60
2012,07,29,05,11,14.60
2012,07,29,05,12,14.60
2012,07,29,05,13,14.60
2012,07,29,05,14,14.60
2012,07,29,05,15,14.60
2012,07,29,05,16,14.60
2012,07,29,05,17,14.60
2012,07,29,05,18,14.60
2012,07,29,05,19,14.60
2012,07,29,05,20,14.60
2012,07,29,05,21,14.60
2012,07,29,05,22,14.60
2012,07,29,05,23,14.60
2012,07,29,05,24,14.50
2012,07,29,05,25,14.60
2012,07,29,05,26,14.60
2012,07,29,05,27,14.60
2012,07,29,05,28,14.50
2012,07,29,05,29,14.50
2012,07,29,05,30,14.50
2012,07,29,05,31,14.50
2012,07,29,05,32,14.50
2012,07,29,05,33,14.50
2012,07,29,05,34,14.50
2012,07,29,05,35,14.50
2012,07,29,05,36,14.50
2012,07,29,05,37,14.50
2012,07,29,05,38,14.50
2012,07,29,05,39,14.50
2012,07,29,05,40,14.50
2012,07,29,05,41,14.50
2012,07,29,05,42,14.50
2012,07,29,05,43,14.50
2012,07,29,05,44,14.50
2012,07,29,05,45,14.50
2012,07,29,05,46,14.50
2012,07,29,05,47,14.50
2012,07,29,05,48,14.50
2012,07,29,05,49,14.50
2012,07,29,05,50,14.50
2012,07,29,05,51,14.50
2012,07,29,05,52,14.50
2012,07,29,05,53,14.50
2012,07,29,05,54,14.50
2012,07,29,05,55,14.50
2012,07,29,05,56,14.50
2012,07,29,05,57,14.50
2012,07,29,05,58,14.50
2012,07,29,05,59,14.50
2012,07,29,06,00,14.50
2012,07,29,06,01,14.50
2012,07,29,06,02,14.50
2012,07,29,06,03,14.50
2012,07,29,06,05,14.50
2012,07,29,06,06,14.50
2012,07,29,06,07,14.50
2012,07,29,06,08,14.50
2012,07,29,06,09,14.50
2012,07,29,06,10,14.50
2012,07,29,06,11,14.50
2012,07,29,06,12,14.50
2012,07,29,06,13,14.50
2012,07,29,06,14,14.40
2012,07,29,06,15,14.50
2012,07,29,06,16,14.40
2012,07,29,06,17,14.40
2012,07,29,06,19,14.40
2012,07,29,06,20,14.50
2012,07,29,06,21,14.40
2012,07,29,06,22,14.50
2012,07,29,06,23,14.50
2012,07,29,06,24,14.40
2012,07,29,06,25,14.40
2012,07,29,06,26,14.40
2012,07,29,06,27,14.40
2012,07,29,06,28,14.40
2012,07,29,06,29,14.40
2012,07,29,06,30,14.40
2012,07,29,06,31,14.40
2012,07,29,06,32,14.40
2012,07,29,06,33,14.40
2012,07,29,06,34,14.40
2012,07,29,06,35,14.40
2012,07,29,06,36,14.40
2012,07,29,06,37,14.40
2012,07,29,06,38,14.40
2012,07,29,06,39,14.40
2012,07,29,06,40,14.40
2012,07,29,06,41,14.40
2012,07,29,06,42,14.40
2012,07,29,06,43,14.40
2012,07,29,06,44,14.40
2012,07,29,06,45,14.30
2012,07,29,06,46,14.30
2012,07,29,06,47,14.30
2012,07,29,06,48,14.30
2012,07,29,06,49,14.40
2012,07,29,06,50,14.40
2012,07,29,06,52,14.40
2012,07,29,06,53,14.40
2012,07,29,06,54,14.40
2012,07,29,06,55,14.40
2012,07,29,06,56,14.40
2012,07,29,06,57,14.30
2012,07,29,06,58,14.30
2012,07,29,06,59,14.30
2012,07,29,07,00,14.40
2012,07,29,07,01,14.30
2012,07,29,07,02,14.40
2012,07,29,07,03,14.30
2012,07,29,07,04,14.40
2012,07,29,07,05,14.40
2012,07,29,07,06,14.40
2012,07,29,07,07,14.40
2012,07,29,07,08,14.40
2012,07,29,07,09,14.40
2012,07,29,07,10,14.40
2012,07,29,07,11,14.40
2012,07,29,07,12,14.40
2012,07,29,07,13,14.40
2012,07,29,07,14,14.40
2012,07,29,07,15,14.40
2012,07,29,07,16,14.40
2012,07,29,07,17,14.40
2012,07,29,07,18,14.40
2012,07,29,07,19,14.40
2012,07,29,07,20,14.40
2012,07,29,07,21,14.40
2012,07,29,07,22,14.40
2012,07,29,07,24,14.40
2012,07,29,07,25,14.40
2012,07,29,07,26,14.40
2012,07,29,07,27,14.40
2012,07,29,07,28,14.50
2012,07,29,07,29,14.50
2012,07,29,07,31,14.50
2012,07,29,07,32,14.50
2012,07,29,07,33,14.50
2012,07,29,07,35,14.50
2012,07,29,07,36,14.50
2012,07,29,07,37,14.50
2012,07,29,07,39,14.50
2012,07,29,07,40,14.50
2012,07,29,07,42,14.60
2012,07,29,07,44,14.60
2012,07,29,07,46,14.60
2012,07,29,07,47,14.60
2012,07,29,07,48,14.60
2012,07,29,07,49,14.60
2012,07,29,07,50,14.60
2012,07,29,07,51,14.60
2012,07,29,07,52,14.60
2012,07,29,07,54,14.70
2012,07,29,07,55,14.70
2012,07,29,07,56,14.70
2012,07,29,07,58,14.70
2012,07,29,07,59,14.60
2012,07,29,08,00,14.60
2012,07,29,08,01,14.60
2012,07,29,08,02,14.60
2012,07,29,08,04,14.70
2012,07,29,08,05,14.70
2012,07,29,08,06,14.70
2012,07,29,08,07,14.70
2012,07,29,08,08,14.70
2012,07,29,08,09,14.70
2012,07,29,08,10,14.70
2012,07,29,08,12,14.70
2012,07,29,08,13,14.70
2012,07,29,08,14,14.80
2012,07,29,08,15,14.80
2012,07,29,08,17,14.80
2012,07,29,08,18,14.80
2012,07,29,08,19,14.80
2012,07,29,08,20,14.80
2012,07,29,08,22,14.90
2012,07,29,08,23,14.90
2012,07,29,08,25,15.00
2012,07,29,08,26,15.00
2012,07,29,08,27,15.00
2012,07,29,08,28,15.00
2012,07,29,08,29,15.00
2012,07,29,08,30,15.00
2012,07,29,08,31,14.90
2012,07,29,08,33,15.00
2012,07,29,08,34,14.90
2012,07,29,08,35,14.90
2012,07,29,08,36,14.90
2012,07,29,08,38,15.00
2012,07,29,08,39,15.00
2012,07,29,08,41,15.00
2012,07,29,08,42,15.00
2012,07,29,08,44,15.00
2012,07,29,08,45,15.00
2012,07,29,08,46,15.00
2012,07,29,08,47,15.00
2012,07,29,08,49,15.00
2012,07,29,08,50,15.00
2012,07,29,08,51,15.00
2012,07,29,08,53,15.00
2012,07,29,08,54,15.00
2012,07,29,08,55,15.00
2012,07,29,08,57,15.00
2012,07,29,08,58,15.00
2012,07,29,08,59,15.00
2012,07,29,09,00,15.00
2012,07,29,09,01,15.00
2012,07,29,09,02,15.10
2012,07,29,09,04,15.10
2012,07,29,09,06,15.10
2012,07,29,09,07,15.00
2012,07,29,09,08,15.00
2012,07,29,09,10,15.00
2012,07,29,09,12,15.00
2012,07,29,09,13,15.00
2012,07,29,09,15,15.00
2012,07,29,09,16,15.00
2012,07,29,09,17,15.00
2012,07,29,09,18,15.00
2012,07,29,09,20,15.00
2012,07,29,09,21,15.10
2012,07,29,09,22,15.10
2012,07,29,09,23,15.10
2012,07,29,09,24,15.10
2012,07,29,09,25,15.10
2012,07,29,09,26,15.10
2012,07,29,09,28,15.10
2012,07,29,09,29,15.10
2012,07,29,09,30,15.20
2012,07,29,09,32,15.20
2012,07,29,09,33,15.20
2012,07,29,09,35,15.20
2012,07,29,09,36,15.30
2012,07,29,09,38,15.20
2012,07,29,09,39,15.20
2012,07,29,09,41,15.20
2012,07,29,09,42,15.20
2012,07,29,09,43,15.20
2012,07,29,09,45,15.30
2012,07,29,09,47,15.30
2012,07,29,09,48,15.30
2012,07,29,09,50,15.30
2012,07,29,09,51,15.30
2012,07,29,09,52,15.30
2012,07,29,09,54,15.30
2012,07,29,09,55,15.30
2012,07,29,09,56,15.30
2012,07,29,09,58,15.30
2012,07,29,09,59,15.30
2012,07,29,10,00,15.30
2012,07,29,10,01,15.40
2012,07,29,10,02,15.40
2012,07,29,10,03,15.40
2012,07,29,10,04,15.40
2012,07,29,10,05,15.40
2012,07,29,10,06,15.40
2012,07,29,10,07,15.40
2012,07,29,10,09,15.40
2012,07,29,10,10,15.40
2012,07,29,10,11,15.40
2012,07,29,10,13,15.50
2012,07,29,10,14,15.50
2012,07,29,10,15,15.60
2012,07,29,10,16,15.60
2012,07,29,10,17,15.60
2012,07,29,10,18,15.60
2012,07,29,10,19,15.60
2012,07,29,10,21,15.70
2012,07,29,10,22,15.70
2012,07,29,10,23,15.70
2012,07,29,10,25,15.80
2012,07,29,10,27,15.80
2012,07,29,10,29,15.80
2012,07,29,10,30,15.80
2012,07,29,10,31,15.80
2012,07,29,10,33,15.80
2012,07,29,10,34,15.80
2012,07,29,10,35,15.80
2012,07,29,10,37,15.80
2012,07,29,10,39,15.80
2012,07,29,10,40,15.90
2012,07,29,10,41,15.90
2012,07,29,10,43,15.90
2012,07,29,10,44,15.90
2012,07,29,10,45,15.90
2012,07,29,10,46,15.90
2012,07,29,10,47,16.00
2012,07,29,10,48,16.10
2012,07,29,10,50,16.00
2012,07,29,10,51,16.10
2012,07,29,10,53,16.10
2012,07,29,10,54,16.20
2012,07,29,10,56,16.30
2012,07,29,10,58,16.30
2012,07,29,10,59,16.30
2012,07,29,11,00,16.40
2012,07,29,11,01,16.40
2012,07,29,11,02,16.40
2012,07,29,11,03,16.40
2012,07,29,11,04,16.40
2012,07,29,11,06,16.40
2012,07,29,11,08,16.50
2012,07,29,11,10,16.50
2012,07,29,11,11,16.40
2012,07,29,11,13,16.40
2012,07,29,11,15,16.40
2012,07,29,11,17,16.40
2012,07,29,11,19,16.50
2012,07,29,11,20,16.60
2012,07,29,11,22,16.60
2012,07,29,11,23,16.60
2012,07,29,11,24,16.70
2012,07,29,11,25,16.70
2012,07,29,11,26,16.80
2012,07,29,11,27,16.80
2012,07,29,11,29,16.90
2012,07,29,11,30,16.90
2012,07,29,11,32,16.90
2012,07,29,11,33,16.90
2012,07,29,11,34,16.90
2012,07,29,11,35,16.90
2012,07,29,11,37,17.10
2012,07,29,11,38,17.10
2012,07,29,11,39,17.20
2012,07,29,11,40,17.20
2012,07,29,11,41,17.20
2012,07,29,11,42,17.30
2012,07,29,11,44,17.40
2012,07,29,11,45,17.50
2012,07,29,11,46,17.60
2012,07,29,11,47,17.70
2012,07,29,11,48,17.70
2012,07,29,11,49,17.80
2012,07,29,11,50,17.80
2012,07,29,11,51,17.90
2012,07,29,11,53,18.10
2012,07,29,11,54,18.10
2012,07,29,11,55,18.20
2012,07,29,11,56,18.20
2012,07,29,11,58,18.40
2012,07,29,11,59,18.40
2012,07,29,12,00,18.60
2012,07,29,12,01,18.60
2012,07,29,12,02,18.70
2012,07,29,12,03,18.70
2012,07,29,12,04,18.80
2012,07,29,12,05,18.80
2012,07,29,12,07,18.90
2012,07,29,12,08,18.90
2012,07,29,12,09,18.90
2012,07,29,12,11,18.90
2012,07,29,12,12,18.90
2012,07,29,12,13,18.90
2012,07,29,12,15,18.90
2012,07,29,12,16,19.00
2012,07,29,12,17,19.00
2012,07,29,12,18,19.10
2012,07,29,12,19,19.10
2012,07,29,12,20,19.10
2012,07,29,12,21,19.00
2012,07,29,12,23,18.90
2012,07,29,12,24,18.90
2012,07,29,12,25,18.90
2012,07,29,12,26,19.00
2012,07,29,12,27,19.10
2012,07,29,12,29,19.10
2012,07,29,12,30,19.10
2012,07,29,12,31,19.20
2012,07,29,12,32,19.30
2012,07,29,12,34,19.40
2012,07,29,12,35,19.40
2012,07,29,12,36,19.50
2012,07,29,12,38,19.60
2012,07,29,12,39,19.50
2012,07,29,12,40,19.60
2012,07,29,12,42,19.60
2012,07,29,12,43,19.60
2012,07,29,12,44,19.60
2012,07,29,12,45,19.40
2012,07,29,12,46,19.40
2012,07,29,12,47,19.30
2012,07,29,12,48,19.30
2012,07,29,12,49,19.30
2012,07,29,12,50,19.40
2012,07,29,12,51,19.50
2012,07,29,12,52,19.60
2012,07,29,12,54,19.60
2012,07,29,12,55,19.60
2012,07,29,12,56,19.50
2012,07,29,12,57,19.50
2012,07,29,12,59,19.50
2012,07,29,13,01,19.60
2012,07,29,13,02,19.70
2012,07,29,13,03,19.60
2012,07,29,13,04,19.70
2012,07,29,13,05,19.80
2012,07,29,13,06,19.80
2012,07,29,13,07,19.80
2012,07,29,13,09,19.90
2012,07,29,13,10,19.90
2012,07,29,13,11,19.90
2012,07,29,13,13,19.90
2012,07,29,13,14,19.90
2012,07,29,13,15,19.90
2012,07,29,13,17,20.10
2012,07,29,13,20,20.20
2012,07,29,13,22,20.20
2012,07,29,13,23,20.20
2012,07,29,13,25,20.30
2012,07,29,13,26,20.40
2012,07,29,13,27,20.40
2012,07,29,13,28,20.50
2012,07,29,13,30,20.60
2012,07,29,13,32,20.50
2012,07,29,13,34,20.50
2012,07,29,13,36,20.60
2012,07,29,13,38,20.50
2012,07,29,13,40,20.50
2012,07,29,13,41,20.50
2012,07,29,13,42,20.50
2012,07,29,13,44,20.60
2012,07,29,13,45,20.60
2012,07,29,13,46,20.60
2012,07,29,13,48,20.60
2012,07,29,13,49,20.70
2012,07,29,13,50,20.70
2012,07,29,13,51,20.70
2012,07,29,13,52,20.70
2012,07,29,13,53,20.80
2012,07,29,13,54,20.90
2012,07,29,13,55,21.00
2012,07,29,13,56,21.10
2012,07,29,13,58,21.20
2012,07,29,13,59,21.20
2012,07,29,14,00,21.30
2012,07,29,14,01,21.30
2012,07,29,14,02,21.30
2012,07,29,14,03,21.40
2012,07,29,14,04,21.40
2012,07,29,14,05,21.50
2012,07,29,14,07,21.60
2012,07,29,14,08,21.60
2012,07,29,14,09,21.50
2012,07,29,14,10,21.50
2012,07,29,14,11,21.60
2012,07,29,14,12,21.60
2012,07,29,14,13,21.70
2012,07,29,14,15,21.80
2012,07,29,14,16,21.90
2012,07,29,14,17,21.90
2012,07,29,14,18,22.00
2012,07,29,14,19,22.00
2012,07,29,14,20,22.10
2012,07,29,14,21,22.10
2012,07,29,14,22,22.10
2012,07,29,14,23,22.10
2012,07,29,14,24,22.10
2012,07,29,14,25,22.10
2012,07,29,14,27,22.10
2012,07,29,14,28,22.10
2012,07,29,14,29,22.10
2012,07,29,14,30,22.10
2012,07,29,14,31,22.10
2012,07,29,14,32,22.10
2012,07,29,14,33,22.10
2012,07,29,14,34,22.10
2012,07,29,14,35,22.10
2012,07,29,14,36,22.10
2012,07,29,14,38,22.20
2012,07,29,14,39,22.20
2012,07,29,14,40,22.20
2012,07,29,14,42,22.30
2012,07,29,14,43,22.30
2012,07,29,14,44,22.30
2012,07,29,14,46,22.30
2012,07,29,14,47,22.30
2012,07,29,14,48,22.30
2012,07,29,14,50,22.40
2012,07,29,14,51,22.40
2012,07,29,14,52,22.40
2012,07,29,14,54,22.40
2012,07,29,14,55,22.40
2012,07,29,14,56,22.40
2012,07,29,14,58,22.30
2012,07,29,14,59,22.30
2012,07,29,15,00,22.30
2012,07,29,15,01,22.30
2012,07,29,15,02,22.30
2012,07,29,15,03,22.30
2012,07,29,15,04,22.30
2012,07,29,15,05,22.40
2012,07,29,15,06,22.40
2012,07,29,15,08,22.40
2012,07,29,15,09,22.40
2012,07,29,15,10,22.40
2012,07,29,15,11,22.40
2012,07,29,15,13,22.50
2012,07,29,15,15,22.40
2012,07,29,15,17,22.40
2012,07,29,15,18,22.40
2012,07,29,15,19,22.50
2012,07,29,15,21,22.60
2012,07,29,15,23,22.60
2012,07,29,15,25,22.60
2012,07,29,15,26,22.60
2012,07,29,15,27,22.60
2012,07,29,15,28,22.60
2012,07,29,15,29,22.60
2012,07,29,15,30,22.50
2012,07,29,15,31,22.40
2012,07,29,15,32,22.30
2012,07,29,15,33,22.20
2012,07,29,15,35,21.80
2012,07,29,15,36,21.70
2012,07,29,15,38,21.50
2012,07,29,15,40,21.50
2012,07,29,15,42,21.50
2012,07,29,15,44,21.50
2012,07,29,15,45,21.50
2012,07,29,15,46,21.50
2012,07,29,15,48,21.60
2012,07,29,15,50,21.40
2012,07,29,15,52,21.40
2012,07,29,15,53,21.40
2012,07,29,15,54,21.30
2012,07,29,15,56,21.30
2012,07,29,15,57,21.30
2012,07,29,15,58,21.30
2012,07,29,16,00,21.20
2012,07,29,16,01,21.20
2012,07,29,16,02,21.20
2012,07,29,16,03,21.10
2012,07,29,16,04,21.10
2012,07,29,16,05,21.10
2012,07,29,16,06,21.10
2012,07,29,16,08,21.10
2012,07,29,16,09,21.10
2012,07,29,16,11,21.10
2012,07,29,16,12,21.10
2012,07,29,16,13,21.10
2012,07,29,16,15,21.10
2012,07,29,16,16,21.00
2012,07,29,16,17,20.90
2012,07,29,16,19,20.90
2012,07,29,16,20,20.90
2012,07,29,16,21,20.90
2012,07,29,16,23,21.00
2012,07,29,16,24,20.90
2012,07,29,16,25,20.90
2012,07,29,16,26,20.80
2012,07,29,16,27,20.80
2012,07,29,16,28,20.80
2012,07,29,16,29,20.80
2012,07,29,16,30,20.70
2012,07,29,16,31,20.70
2012,07,29,16,32,20.70
2012,07,29,16,33,20.70
2012,07,29,16,34,20.70
2012,07,29,16,35,20.80
2012,07,29,16,36,20.70
2012,07,29,16,37,20.70
2012,07,29,16,38,20.70
2012,07,29,16,39,20.80
2012,07,29,16,40,20.80
2012,07,29,16,42,20.80
2012,07,29,16,43,20.80
2012,07,29,16,44,20.70
2012,07,29,16,46,20.60
2012,07,29,16,47,20.60
2012,07,29,16,48,20.50
2012,07,29,16,49,20.50
2012,07,29,16,50,20.50
2012,07,29,16,51,20.50
2012,07,29,16,52,20.50
2012,07,29,16,54,20.40
2012,07,29,16,55,20.40
2012,07,29,16,56,20.30
2012,07,29,16,57,20.30
2012,07,29,16,58,20.30
2012,07,29,16,59,20.30
2012,07,29,17,00,20.30
2012,07,29,17,01,20.30
2012,07,29,17,02,20.40
2012,07,29,17,03,20.40
2012,07,29,17,04,20.40
2012,07,29,17,05,20.30
2012,07,29,17,06,20.30
2012,07,29,17,07,20.30
2012,07,29,17,09,20.20
2012,07,29,17,10,20.20
2012,07,29,17,11,20.20
2012,07,29,17,12,20.20
2012,07,29,17,14,20.20
2012,07,29,17,15,20.20
2012,07,29,17,17,20.30
2012,07,29,17,18,20.30
2012,07,29,17,19,20.30
2012,07,29,17,20,20.30
2012,07,29,17,22,20.30
2012,07,29,17,23,20.30
2012,07,29,17,25,20.30
2012,07,29,17,26,20.30
2012,07,29,17,27,20.30
2012,07,29,17,28,20.30
2012,07,29,17,29,20.30
2012,07,29,17,30,20.30
2012,07,29,17,31,20.30
2012,07,29,17,33,20.30
2012,07,29,17,34,20.30
2012,07,29,17,35,20.30
2012,07,29,17,36,20.40
2012,07,29,17,37,20.40
2012,07,29,17,38,20.40
2012,07,29,17,39,20.40
2012,07,29,17,40,20.40
2012,07,29,17,41,20.50
2012,07,29,17,42,20.60
2012,07,29,17,43,20.60
2012,07,29,17,44,20.50
2012,07,29,17,45,20.50
2012,07,29,17,46,20.50
2012,07,29,17,47,20.40
2012,07,29,17,48,20.40
2012,07,29,17,49,20.40
2012,07,29,17,50,20.40
2012,07,29,17,52,20.40
2012,07,29,17,53,20.50
2012,07,29,17,54,20.40
2012,07,29,17,56,20.40
2012,07,29,17,57,20.40
2012,07,29,17,58,20.40
2012,07,29,17,59,20.40
2012,07,29,18,00,20.30
2012,07,29,18,01,20.40
2012,07,29,18,03,20.40
2012,07,29,18,04,20.40
2012,07,29,18,05,20.50
2012,07,29,18,06,20.50
2012,07,29,18,09,20.40
2012,07,29,18,10,20.40
2012,07,29,18,11,20.40
2012,07,29,18,12,20.40
2012,07,29,18,13,20.50
2012,07,29,18,14,20.50
2012,07,29,18,15,20.50
2012,07,29,18,16,20.50
2012,07,29,18,17,20.50
2012,07,29,18,19,20.40
2012,07,29,18,20,20.40
2012,07,29,18,21,20.30
2012,07,29,18,22,20.30
2012,07,29,18,23,20.30
2012,07,29,18,24,20.30
2012,07,29,18,25,20.20
2012,07,29,18,27,20.20
2012,07,29,18,28,20.10
2012,07,29,18,29,20.10
2012,07,29,18,30,20.10
2012,07,29,18,31,20.10
2012,07,29,18,32,20.10
2012,07,29,18,33,20.00
2012,07,29,18,35,20.00
2012,07,29,18,36,19.90
2012,07,29,18,37,20.00
2012,07,29,18,38,20.00
2012,07,29,18,39,20.10
2012,07,29,18,40,20.10
2012,07,29,18,41,20.00
2012,07,29,18,42,20.00
2012,07,29,18,43,19.90
2012,07,29,18,44,19.90
2012,07,29,18,46,19.90
2012,07,29,18,47,19.90
2012,07,29,18,48,19.90
2012,07,29,18,50,19.90
2012,07,29,18,51,19.90
2012,07,29,18,52,19.80
2012,07,29,18,53,19.80
2012,07,29,18,54,19.80
2012,07,29,18,55,19.70
2012,07,29,18,56,19.70
2012,07,29,18,58,19.70
2012,07,29,18,59,19.70
2012,07,29,19,01,19.60
2012,07,29,19,02,19.60
2012,07,29,19,03,19.60
2012,07,29,19,05,19.50
2012,07,29,19,06,19.40
2012,07,29,19,07,19.40
2012,07,29,19,08,19.40
2012,07,29,19,09,19.30
2012,07,29,19,10,19.30
2012,07,29,19,11,19.30
2012,07,29,19,12,19.20
2012,07,29,19,13,19.20
2012,07,29,19,14,19.20
2012,07,29,19,15,19.20
2012,07,29,19,17,19.20
2012,07,29,19,18,19.20
2012,07,29,19,19,19.20
2012,07,29,19,21,19.10
2012,07,29,19,22,19.10
2012,07,29,19,23,19.10
2012,07,29,19,25,19.10
2012,07,29,19,26,19.10
2012,07,29,19,27,19.10
2012,07,29,19,29,19.10
2012,07,29,19,30,19.10
2012,07,29,19,31,19.10
2012,07,29,19,33,19.10
2012,07,29,19,34,19.10
2012,07,29,19,35,19.10
2012,07,29,19,37,19.10
2012,07,29,19,38,19.10
2012,07,29,19,39,19.10
2012,07,29,19,40,19.20
2012,07,29,19,41,19.20
2012,07,29,19,42,19.10
2012,07,29,19,44,19.10
2012,07,29,19,45,19.10
2012,07,29,19,46,19.10
2012,07,29,19,48,19.10
2012,07,29,19,49,19.10
2012,07,29,19,50,19.00
2012,07,29,19,52,18.90
2012,07,29,19,53,18.90
2012,07,29,19,54,18.90
2012,07,29,19,55,18.90
2012,07,29,19,56,18.90
2012,07,29,19,57,18.90
2012,07,29,19,58,18.90
2012,07,29,20,00,18.70
2012,07,29,20,01,18.60
2012,07,29,20,02,18.60
2012,07,29,20,06,18.40
2012,07,29,20,08,18.30
2012,07,29,20,09,18.30
2012,07,29,20,10,18.30
2012,07,29,20,11,18.30
2012,07,29,20,12,18.30
2012,07,29,20,13,18.30
2012,07,29,20,14,18.30
2012,07,29,20,15,18.30
2012,07,29,20,16,18.30
2012,07,29,20,17,18.30
2012,07,29,20,18,18.30
2012,07,29,20,19,18.30
2012,07,29,20,20,18.30
2012,07,29,20,21,18.20
2012,07,29,20,22,18.20
2012,07,29,20,23,18.20
2012,07,29,20,24,18.10
2012,07,29,20,25,18.10
2012,07,29,20,26,18.00
2012,07,29,20,27,18.00
2012,07,29,20,28,17.90
2012,07,29,20,29,17.90
2012,07,29,20,30,17.90
2012,07,29,20,31,17.80
2012,07,29,20,32,17.80
2012,07,29,20,33,17.80
2012,07,29,20,34,17.80
2012,07,29,20,35,17.70
2012,07,29,20,36,17.70
2012,07,29,20,37,17.70
2012,07,29,20,38,17.60
2012,07,29,20,39,17.60
2012,07,29,20,40,17.50
2012,07,29,20,41,17.40
2012,07,29,20,43,17.30
2012,07,29,20,44,17.30
2012,07,29,20,45,17.20
2012,07,29,20,46,17.20
2012,07,29,20,47,17.10
2012,07,29,20,48,17.10
2012,07,29,20,49,17.00
2012,07,29,20,50,16.90
2012,07,29,20,51,16.90
2012,07,29,20,52,16.90
2012,07,29,20,54,16.80
2012,07,29,20,55,16.80
2012,07,29,20,56,16.80
2012,07,29,20,57,16.70
2012,07,29,20,58,16.70
2012,07,29,20,59,16.70
2012,07,29,21,00,16.60
2012,07,29,21,02,16.60
2012,07,29,21,06,16.50
2012,07,29,21,07,16.40
2012,07,29,21,09,16.40
2012,07,29,21,10,16.30
2012,07,29,21,11,16.30
2012,07,29,21,12,16.30
2012,07,29,21,13,16.30
2012,07,29,21,14,16.30
2012,07,29,21,15,16.20
2012,07,29,21,17,16.20
2012,07,29,21,18,16.20
2012,07,29,21,19,16.10
2012,07,29,21,20,16.10
2012,07,29,21,21,16.10
2012,07,29,21,23,16.00
2012,07,29,21,25,15.90
2012,07,29,21,26,15.90
2012,07,29,21,27,15.90
2012,07,29,21,28,15.90
2012,07,29,21,29,15.80